Mullan Pass, ID

11:49 AM PDT on October 14, 2019 (GMT -0700)
Mullan Pass

Weather History for KMLP - August, 2019

Change the Weather History Date:

Sunday, August 4, 2019

  Actual Average (WUND) Record (WUND)
Temperature  
Mean Temperature 65 °F -  
Max Temperature 75 °F - - (-1)
Min Temperature 57 °F - - (-1)
Growing Degree Days 15 (Base 50)    
Moisture  
Dew Point 32 °F    
Average Humidity 30    
Maximum Humidity 42    
Minimum Humidity 19    
Precipitation  
Precipitation 0.00 in - - ()
Sea Level Pressure  
Sea Level Pressure 29.94 in    
Wind  
Wind Speed 2 mph (NNW)    
Max Wind Speed 7 mph    
Max Gust Speed -    
Visibility 10 miles    
Events      
Averages and records for this station are not official NWS values.
T = Trace of Precipitation, MM = Missing Value Source: NWS Daily Summary

Daily Weather History Graph

Daily Weather History Graph

Search for Another Location

Airport or City:

Astronomy

Aug. 04, 2019 Rise Set
Actual Time 5:24 AM PDT 8:12 PM PDT
Civil Twilight 4:48 AM PDT 8:47 PM PDT
Nautical Twilight 4:03 AM PDT 9:32 PM PDT
Astronomical Twilight 3:09 AM PDT 10:25 PM PDT
Moon 9:50 AM PDT (8/4) 10:35 PM PDT (8/4)
Length of Visible Light 15h 58m
Length of Day
14h 48m
Waxing Crescent, 19% of the Moon is Illuminated
Aug 4
Waxing Crescent
Aug 7
First Quarter
Aug 15
Full
Aug 23
Last Quarter
Aug 30
New

Hourly Weather History & Observations

Time (PDT) Temp. Dew Point Humidity Pressure Visibility Wind Dir Wind Speed Gust Speed Precip Events Conditions
12:53 AM 60.1 °F 35.1 °F 39% 29.95 in 10.0 mi Calm Calm - N/A   Clear
1:53 AM 57.9 °F 35.1 °F 42% 29.94 in 10.0 mi NW 3.5 mph - N/A   Clear
2:53 AM 59.0 °F 34.0 °F 39% 29.94 in 10.0 mi North 3.5 mph - N/A   Clear
3:53 AM 60.1 °F 35.1 °F 39% 29.93 in 10.0 mi Calm Calm - N/A   Clear
4:53 AM 59.0 °F 34.0 °F 39% 29.94 in 10.0 mi Calm Calm - N/A   Clear
5:53 AM 60.1 °F 34.0 °F 38% 29.94 in 10.0 mi Calm Calm - N/A   Clear
6:53 AM 61.0 °F 36.0 °F 39% 29.95 in 10.0 mi Calm Calm - N/A   Clear
7:53 AM 63.0 °F 37.9 °F 40% 29.96 in 10.0 mi Calm Calm - N/A   Clear
8:53 AM 63.0 °F 37.9 °F 40% 29.97 in 10.0 mi Calm Calm - N/A   Clear
9:53 AM 66.0 °F 37.9 °F 36% 29.96 in 10.0 mi Calm Calm - N/A   Clear
10:53 AM 66.9 °F 39.9 °F 37% 29.96 in 10.0 mi Variable 3.5 mph - N/A   Clear
11:53 AM 69.1 °F 35.1 °F 29% 29.95 in 10.0 mi NNW 4.6 mph - N/A   Clear
12:53 PM 70.0 °F 26.1 °F 19% 29.95 in 10.0 mi NNW 5.8 mph - N/A   Clear
1:53 PM 73.0 °F 30.0 °F 20% 29.94 in 10.0 mi NNW 4.6 mph - N/A   Clear
2:53 PM 73.9 °F 34.0 °F 23% 29.93 in 10.0 mi Variable 6.9 mph - N/A   Clear
3:53 PM 73.9 °F 30.9 °F 21% 29.92 in 10.0 mi Variable 4.6 mph - N/A   Clear
4:53 PM 73.9 °F 34.0 °F 23% 29.92 in 10.0 mi North - - N/A   Clear
5:53 PM 72.0 °F 28.9 °F 20% 29.92 in 10.0 mi Calm Calm - N/A   Clear
6:53 PM 70.0 °F 30.9 °F 24% 29.92 in 10.0 mi Calm Calm - N/A   Clear
7:53 PM 66.0 °F 28.9 °F 25% 29.93 in 10.0 mi NW 3.5 mph - N/A   Clear
8:53 PM 64.0 °F 27.0 °F 25% 29.94 in 10.0 mi Variable 3.5 mph - N/A   Clear
9:53 PM 64.0 °F 25.0 °F 23% 29.94 in 10.0 mi NW 4.6 mph - N/A   Clear
10:53 PM 63.0 °F 25.0 °F 24% 29.94 in 10.0 mi NW 4.6 mph - N/A   Clear
11:53 PM 63.0 °F 23.0 °F 22% 29.93 in 10.0 mi North 4.6 mph - N/A   Clear